Terminal Aerodrome Forecast
Issued by NWS Blacksburg, VA

Home | Current Version | Previous Version | Text Only | Print | Product List | Glossary On
Versions: 1 2 3 4 5 6 7 8 9 10 11 12 13 14 15 16 17 18 19 20 21 22 23 24 25 26 27 28 29 30 31 32 33 34 35 36 37 38 39 40
000
FTUS41 KRNK 211729
TAFROA
TAF
KROA 211729Z 2118/2218 26008G16KT P6SM BKN045 BKN100
      TEMPO 2118/2122 -SHRA
     FM220200 29010G20KT P6SM BKN040 OVC090
     FM221400 32015G25KT P6SM BKN050 OVC120=

USA.gov is the U.S. government's official web portal to all federal, state and local government web resources and services.